Regional Weather Roundup
Issued by NWS Portland, ME

Home | Current Version | Previous Version | Text Only | Print | Product List | Glossary On
Versions: 1 2 3 4 5 6 7 8 9 10 11 12 13 14 15 16 17 18 19 20 21 22 23 24 25 26 27 28 29 30 31 32 33 34 35 36 37 38 39 40 41 42 43 44 45 46 47 48 49 50
000
ASUS41 KGYX 301710
RWRGYX
WEATHER ROUNDUP FOR MAINE AND NEW HAMPSHIRE
NATIONAL WEATHER SERVICE GRAY ME
100 PM EDT SUN AUG 30 2015

MEZ002-005-006-010-012-015-018-020-021-024-026-027-029-301800-
MAINE

CITY           SKY/WX    TMP DP  RH WIND       PRES   REMARKS
PORTLAND       PTSUNNY   79  61  53 CALM      30.04F
SANFORD        MOSUNNY   81  55  41 N6        30.05F
BAR HARBOR     MOSUNNY   79  63  57 S10       30.00F
WISCASSET      MOSUNNY   82  60  47 VRB5      30.04F
ROCKLAND       MOSUNNY   73  63  68 S9        30.01S
FRYEBURG       MOSUNNY   80  64  58 CALM      30.05F
LEWISTONAUBURN MOSUNNY   82 N/A N/A W7        30.04F
AUGUSTA        SUNNY     78  59  51 NW9       30.04F
WATERVILLE     PTSUNNY   77  59  53 NW5       30.00S
BANGOR         MOSUNNY   79  60  52 NW9       30.01F
GREENVILLE       N/A     70  60  70 VRB6      30.03F
MILLINOCKET    MOSUNNY   76  60  57 W8        30.00F
HOULTON        PTSUNNY   74  60  61 W9        29.97F
PRESQUE ISLE   CLOUDY    72  57  60 W10G17    29.97S
FRENCHVILLE    PTSUNNY   71  57  61 W7        29.95F
CARIBOU        MOSUNNY   73  61  65 W12       29.95F
$$

NHZ002-005-008-009-011-012-014-301800-
NEW HAMPSHIRE

CITY           SKY/WX    TMP DP  RH WIND       PRES   REMARKS
PORTSMOUTH     PTSUNNY   82  57  43 W8        30.03F
ROCHESTER      MOSUNNY   81  58  45 W6        30.04F
NASHUA         MOSUNNY   83  57  41 SE7G20    30.05F
MANCHESTER     PTSUNNY   84  54  35 NW6       30.04F
CONCORD        MOSUNNY   82  56  40 VRB5      30.05F
LACONIA        PTSUNNY   77  59  53 W5        30.05S
PLYMOUTH       FAIR      77  57  49 W7        30.05F
BERLIN         PTSUNNY   73  57  57 VRB6      30.08F
WHITEFIELD     CLOUDY    73  59  61 NW6       30.09F
JAFFREY        PTSUNNY   78  58  49 W7        30.10F
KEENE          MOSUNNY   79  61  53 SW5       30.07F
LEBANON        PTSUNNY   79  60  52 NE5       30.06F
MT WASHINGTON  FOG       52  46  82 NW9G18      N/A  VSB 1/8
$$

VTZ005-007-008-301800-
VERMONT

CITY           SKY/WX    TMP DP  RH WIND       PRES   REMARKS
ST JOHNSBURY     N/A     75  59  57 MISG      30.06F
MONTPELIER     MOSUNNY   74  59  59 VRB3      30.12F
BURLINGTON     MOSUNNY   79  58  48 SW6       30.05F
$$

MAZ007-012-024-CTZ003-RIZ002-NYZ038-NYZ072-301800-
SOUTHERN NEW ENGLAND AND NY

CITY           SKY/WX    TMP DP  RH WIND       PRES   REMARKS
BOSTON         PTSUNNY   86  60  41 W9G23     30.04F
WORCESTER      PTSUNNY   79  60  52 W8        30.10F
NANTUCKET      SUNNY     79  68  69 SW16      30.08F
PROVIDENCE     PTSUNNY   85  60  42 SW13G20   30.06F
HARTFORD       PTSUNNY   82  63  52 VRB3      30.06F
ALBANY         PTSUNNY   77  61  57 CALM      30.08F
NEW YORK CITY  PTSUNNY   87  61  41 W6        30.07F
$$

ANZ081-ANZ082-ANZ150-NHZ014-MEZ023>029-301800-
COASTAL MARINE OBSERVATIONS

STATION/POSITION TIME  TEMP    WIND        PRES    WAVE
                       AIR SEA DIR/SP/G            HT/PER
                 (UTC) (F)     (DEG/KT/KT) (MB)    (FT/S)
MOUNT DESERT ROC 1700   63     170/  9/ 10 1016.7F
MATINICUS ROCK   1700   62     250/ 12/ 12 1016.7F
ISLE OF SHOALS   1700   74     180/  5/  5 1016.8F
JEFFREYS LEDGE   1603      69                N/A     2/10
CASHES LEDGE BUO 1650   69                 1016.9F   3/10
GEORGES BANK BUO 1650   71 70  340/  4/  6 1018.7F   3/10
$$

.............KEY..............
   WCI - WIND CHILL
   TC  - TEMPERATURE IN CELSIUS
   VSB - VISIBILITY IN MILES
   HX  - HEAT INDEX
   FAIR- INDICATES FEW OR NO CLOUDS BELOW 12,000 FT, WITH NO
         SIGNIFICANT WEATHER AND/OR OBSTRUCTIONS TO VISIBILITY.




USA.gov is the U.S. government's official web portal to all federal, state and local government web resources and services.